Location: Newark
(1.4667°N, 173.0333°E)
Time: 05:51:36
(UTC+00:00)

OTV 5 (USA 277) - Visible Passes

Search period start: 20 March 2019 00:00
Search period end: 30 March 2019 00:00
Orbit: 315 x 320 km, 54.5° (Epoch: 14 March)

Date Brightness Start Highest point End Pass type
(mag) Time Alt. Az. Time Alt. Az. Time Alt. Az.
20 Mar ? 07:46:56 10° NW 07:49:35 59° WSW 07:49:51 55° SSW visible
21 Mar ? 08:03:08 10° W 08:04:14 12° WSW 08:05:20 10° SSW visible
22 Mar ? 18:04:47 10° SE 18:05:44 11° ESE 18:06:39 10° ESE visible
23 Mar ? 06:57:08 10° WNW 06:59:24 24° WSW 07:01:41 10° S visible
25 Mar ? 17:14:18 17° SSE 17:15:32 23° ESE 17:17:46 10° ENE visible
26 Mar ? 17:30:04 51° WNW 17:30:09 52° WNW 17:32:47 10° NNE visible
